Regional Weather Roundup
Issued by NWS Mt. Holly, NJ

Home | Current Version | Previous Version | Text Only | Print | Product List | Glossary On
Versions: 1 2 3 4 5 6 7 8 9 10 11 12 13 14 15 16 17 18 19 20 21 22 23 24 25 26 27 28 29 30 31 32 33 34 35 36 37 38 39 40 41 42 43 44 45 46 47 48 49 50
413
ASUS41 KPHI 020612
RWRPHI

REGIONAL WEATHER ROUNDUP
NATIONAL WEATHER SERVICE MOUNT HOLLY NJ
200 AM EDT MON MAY 02 2016

NOTE:  "FAIR" INDICATES FEW OR NO CLOUDS BELOW 12,000 FEET WITH NO
SIGNIFICANT WEATHER AND/OR OBSTRUCTIONS TO VISIBILITY.

 * = STATION DOES NOT REPORT PRECIPITATION (E.G. RAIN, SNOW, ETC.)
        OR FOG.

NJZ015>026-020700-
SOUTHERN NEW JERSEY

CITY           SKY/WX    TMP DP  RH WIND       PRES   REMARKS
POMONA         CLOUDY    48  47  96 NE7       30.03S VSB 1
6HR MIN TEMP:  48; 6HR MAX TEMP:  52;

WILDWOOD*      CLOUDY   N/A N/A N/A NE3       30.03S
MILLVILLE      CLOUDY    50  48  93 NE6       30.02F
WRIGHTSTOWN    CLOUDY    46  45  93 NE6       30.02S
MOUNT HOLLY    CLOUDY    46  45  96 E3        30.05S
TRENTON        CLOUDY    46  45  96 E5        30.04F
6HR MIN TEMP:  46; 6HR MAX TEMP:  49;


$$
NJZ001>014-020700-
NORTHERN NEW JERSEY

CITY           SKY/WX    TMP DP  RH WIND       PRES   REMARKS
SUSSEX         CLOUDY    45  42  89 CALM      30.04F
ANDOVER*         N/A     44  43  96 CALM      30.04F
MORRISTOWN     CLOUDY    45  43  93 NE5       30.05F FOG
NEWARK         CLOUDY    45  44  97 N8        30.05F FOG
TETERBORO      CLOUDY    45  43  93 N3        30.04F FOG
CALDWELL       CLOUDY    44  42  93 NE5       30.05F FOG
SOMERVILLE     CLOUDY    46  44  93 CALM      30.03F
TOMS RIVER*    CLOUDY    46  43  87 NE6       30.04F

$$
PAZ043-044-047-054-055-060>062-066>071-020700-
EASTERN PENNSYLVANIA

CITY           SKY/WX    TMP DP  RH WIND       PRES   REMARKS
PHILADELPHIA   CLOUDY    49  46  90 E8        30.04S
6HR MIN TEMP:  49; 6HR MAX TEMP:  52; 6HR PCP: TRACE;

NORTH PHILA    CLOUDY    48  46  93 NE6       30.06S
BLUE BELL*     CLOUDY    45  45 100 E5        30.03F
DOYLESTOWN     CLOUDY    45  45 100 CALM      30.03F FOG
QUAKERTOWN*    CLOUDY    46  46 100 CALM      30.03F
PERKASIE*      CLOUDY    46  46 100 CALM      30.03F FOG
POTTSTOWN      CLOUDY    47  47 100 VRB3      30.05S
LANCASTER      CLOUDY    50  49  96 E6        30.01F FOG
COATESVILLE    FOG       48  48 100 CALM      30.03F VSB 1/4
READING        CLOUDY    50  47  89 S3        30.02F FOG
6HR MIN TEMP:  50; 6HR MAX TEMP:  51;

ALLENTOWN      CLOUDY    48  46  93 CALM      30.03F FOG
6HR MIN TEMP:  48; 6HR MAX TEMP:  50;

MOUNT POCONO   FOG       42  41  96 SE5       30.00F VSB 1/4
6HR MIN TEMP:  42; 6HR MAX TEMP:  43;

HAZLETON       FOG       45  45 100 SE5       30.03F VSB 1/4
LEHIGHTON      CLOUDY    46  46 100 CALM      30.03F FOG
WILKES BARRE   CLOUDY    49  45  86 CALM      30.00F

$$
DEZALL-MDZ008-012-015-019-020-020700-
DELAWARE AND EASTERN MARYLAND

CITY           SKY/WX    TMP DP  RH WIND       PRES   REMARKS
WILMINGTON     CLOUDY    51  49  92 E9        30.02F
6HR MIN TEMP:  51; 6HR MAX TEMP:  53;

DOVER          CLOUDY    54  54 100 E6        30.00F
GEORGETOWN     FOG       52  52 100 NE7       30.03R VSB 1
6HR MIN TEMP:  52; 6HR MAX TEMP:  53;

EASTON         CLOUDY   N/A N/A N/A SE5       30.04F FOG
PATUXENT       CLOUDY    56  55  97 NE5       30.00F FOG
OCEAN CITY     CLOUDY    53  52  96 NE6       30.02S
WALLOPS ISLAND CLOUDY    56  54  93 NE9       30.01F
CAMBRIDGE      CLOUDY    52  52 100 CALM      30.01F
SALISBURY      CLOUDY    54  54 100 E5        30.01S FOG

$$
PAZ001-021-NYZ056-072-MDZ011-DCZ001-020700-
OTHER NEARBY LOCATIONS

CITY           SKY/WX    TMP DP  RH WIND       PRES   REMARKS
HARRISBURG     CLOUDY    52  50  93 E6        29.99F FOG
STATE COLLEGE  CLOUDY    50  49  97 CALM      29.97F FOG
WILLIAMSPORT   CLOUDY    50  47  89 E9        29.99F FOG
BINGHAMTON     CLOUDY    45  44  97 S7        29.97S
NEW YORK CITY  CLOUDY    45  43  93 NE5       30.07F FOG
BALTIMORE      CLOUDY    54  53  97 NE7       29.99S FOG
WASHINGTON DC  LGT RAIN  56  54  93 SE6       30.00F

$$




USA.gov is the U.S. government's official web portal to all federal, state and local government web resources and services.